Andrews, TX

3:21 AM CST on December 09, 2019 (GMT -0600)
Andrews

Weather History for KE11 - October, 2019

Change the Weather History Date:

Tuesday, October 29, 2019

  Actual Average (WUND) Record (WUND)
Temperature  
Mean Temperature 38 °F -  
Max Temperature 43 °F - - (-1)
Min Temperature 33 °F - - (-1)
Degree Days  
Heating Degree Days 27    
Moisture  
Dew Point 36 °F    
Average Humidity 95    
Maximum Humidity 100    
Minimum Humidity 80    
Precipitation  
Precipitation 0.00 in - - ()
Sea Level Pressure  
Sea Level Pressure 30.02 in    
Wind  
Wind Speed 10 mph ()    
Max Wind Speed 16 mph    
Max Gust Speed 21 mph    
Visibility 5.3 miles    
Events Rain    
Averages and records for this station are not official NWS values.
T = Trace of Precipitation, MM = Missing Value Source: Averaged Metar Reports

Daily Weather History Graph

Daily Weather History Graph

Search for Another Location

Airport or City:

Astronomy

Oct. 29, 2019 Rise Set
Actual Time 8:04 AM CDT 7:02 PM CDT
Civil Twilight 7:39 AM CDT 7:27 PM CDT
Nautical Twilight 7:10 AM CDT 7:56 PM CDT
Astronomical Twilight 6:41 AM CDT 8:25 PM CDT
Moon 9:37 AM CDT (10/29) 8:33 PM CDT (10/29)
Length of Visible Light 11h 48m
Length of Day
10h 58m
Waxing Crescent, 3% of the Moon is Illuminated
Oct 29
Waxing Crescent
Nov 4
First Quarter
Nov 12
Full
Nov 19
Last Quarter
Nov 26
New

Hourly Weather History & Observations

Time (CDT) Temp. Windchill Dew Point Humidity Pressure Visibility Wind Dir Wind Speed Gust Speed Precip Events Conditions
12:15 AM 37.8 °F 29.0 °F 32.4 °F 81% 30.06 in 10.0 mi East 15.0 mph 18.4 mph N/A   Clear
12:35 AM 37.6 °F 29.1 °F 32.2 °F 81% 30.07 in 10.0 mi ENE 13.8 mph 19.6 mph N/A   Clear
12:55 AM 37.4 °F 30.3 °F 32.2 °F 81% 30.06 in 10.0 mi ENE 10.4 mph - N/A   Scattered Clouds
1:15 AM 37.0 °F 28.9 °F 32.2 °F 83% 30.05 in 10.0 mi ENE 12.7 mph - N/A   Mostly Cloudy
1:35 AM 37.8 °F 29.4 °F 33.4 °F 84% 30.06 in 10.0 mi East 13.8 mph 20.7 mph N/A   Overcast
1:55 AM 37.9 °F 30.9 °F 33.4 °F 84% 30.06 in 10.0 mi East 10.4 mph - N/A   Overcast
2:15 AM 37.6 °F 30.0 °F 32.7 °F 83% 30.07 in 10.0 mi ENE 11.5 mph 16.1 mph N/A   Overcast
2:35 AM 37.4 °F 30.3 °F 32.4 °F 82% 30.07 in 10.0 mi ENE 10.4 mph - N/A   Overcast
2:55 AM 37.0 °F 30.4 °F 32.0 °F 82% 30.06 in 10.0 mi ENE 9.2 mph - N/A   Overcast
3:15 AM 36.9 °F 29.6 °F 32.0 °F 83% 30.06 in 10.0 mi ENE 10.4 mph - N/A   Overcast
3:35 AM 36.9 °F 28.7 °F 32.0 °F 83% 30.07 in 10.0 mi ENE 12.7 mph 16.1 mph N/A   Overcast
3:55 AM 36.7 °F 28.0 °F 31.6 °F 82% 30.06 in 10.0 mi ENE 13.8 mph - N/A   Overcast
4:15 AM 36.1 °F 28.2 °F 31.1 °F 82% 30.07 in 10.0 mi ENE 11.5 mph - N/A   Overcast
4:35 AM 36.1 °F 26.9 °F 30.4 °F 80% 30.05 in 10.0 mi East 15.0 mph - N/A   Overcast
4:55 AM 36.1 °F 28.7 °F 30.4 °F 80% 30.05 in 10.0 mi ENE 10.4 mph - N/A   Overcast
5:15 AM 36.0 °F 28.5 °F 30.7 °F 81% 30.05 in 10.0 mi ENE 10.4 mph 16.1 mph N/A   Overcast
5:35 AM 36.0 °F 27.5 °F 30.9 °F 82% 30.05 in 10.0 mi ENE 12.7 mph 18.4 mph N/A   Overcast
5:55 AM 34.7 °F 26.9 °F 32.7 °F 92% 30.05 in 5.0 mi ENE 10.4 mph - N/A   Overcast
6:15 AM 34.3 °F 27.0 °F 34.3 °F 100% 30.06 in 4.0 mi East 9.2 mph - N/A   Overcast
6:35 AM 34.2 °F 27.5 °F 34.2 °F 100% 30.06 in 2.0 mi ENE 8.1 mph - N/A   Overcast
6:55 AM 34.2 °F 28.2 °F 34.2 °F 100% 30.06 in 2.5 mi ENE 6.9 mph - N/A   Overcast
7:15 AM 34.2 °F 26.8 °F 34.2 °F 100% 30.06 in 2.0 mi East 9.2 mph - N/A   Overcast
7:30 AM 34.0 °F 27.2 °F 34.0 °F 100% 30.05 in 2.0 mi East 8.1 mph - N/A   Overcast
7:55 AM 34.2 °F 27.5 °F 34.2 °F 100% 30.05 in 2.0 mi East 8.1 mph - N/A   Overcast
8:15 AM 34.3 °F 27.0 °F 34.3 °F 100% 30.05 in 2.0 mi East 9.2 mph - N/A   Overcast
8:35 AM 34.3 °F 26.5 °F 34.3 °F 100% 30.05 in 1.5 mi East 10.4 mph - N/A   Overcast
8:55 AM 34.7 °F 29.6 °F 34.7 °F 100% 30.05 in 1.8 mi East 5.8 mph - N/A   Overcast
9:15 AM 34.9 °F 29.9 °F 34.9 °F 100% 30.07 in 2.0 mi East 5.8 mph - N/A   Overcast
9:35 AM 34.9 °F 32.0 °F 34.9 °F 100% 30.07 in 2.0 mi East 3.5 mph - N/A   Overcast
9:55 AM 35.6 °F 31.7 °F 35.6 °F 100% 30.07 in 1.8 mi East 4.6 mph - N/A   Overcast
10:10 AM 36.0 °F 30.3 °F 36.0 °F 100% 30.07 in 1.8 mi East 6.9 mph - N/A   Overcast
10:35 AM 36.5 °F 30.3 °F 36.5 °F 100% 30.07 in 1.8 mi East 8.1 mph - N/A   Overcast
10:55 AM 36.9 °F 30.7 °F 36.9 °F 100% 30.07 in 1.8 mi ESE 8.1 mph - N/A   Overcast
11:15 AM 37.4 °F 29.8 °F 37.4 °F 100% 30.05 in 2.0 mi East 11.5 mph - N/A   Overcast
11:35 AM 37.6 °F 31.0 °F 37.6 °F 100% 30.06 in 1.8 mi East 9.2 mph - N/A   Overcast
11:55 AM 38.1 °F 33.7 °F 38.1 °F 100% 30.06 in 1.8 mi ENE 5.8 mph - N/A   Overcast
12:15 PM 38.7 °F 33.6 °F 38.7 °F 100% 30.06 in 1.8 mi East 6.9 mph - N/A   Overcast
12:35 PM 38.8 °F 32.6 °F 38.8 °F 100% 30.05 in 1.8 mi East 9.2 mph - N/A   Overcast
12:55 PM 38.7 °F 32.4 °F 38.7 °F 100% 30.05 in 1.5 mi East 9.2 mph - N/A   Overcast
1:15 PM 39.4 °F 34.5 °F 39.4 °F 100% 30.03 in 1.5 mi East 6.9 mph - N/A   Overcast
1:35 PM 39.9 °F 33.9 °F 39.9 °F 100% 30.02 in 2.0 mi East 9.2 mph - N/A   Overcast
1:55 PM 40.1 °F 34.1 °F 40.1 °F 100% 30.00 in 2.5 mi East 9.2 mph - N/A   Overcast
2:15 PM 40.8 °F 35.0 °F 40.8 °F 100% 29.99 in 4.0 mi ESE 9.2 mph - N/A   Overcast
2:35 PM 41.4 °F 36.2 °F 41.4 °F 100% 29.97 in 5.0 mi East 8.1 mph - N/A   Overcast
2:55 PM 41.4 °F 34.7 °F 41.2 °F 99% 29.96 in 4.0 mi East 11.5 mph - N/A   Overcast
3:15 PM 41.2 °F 35.5 °F 41.2 °F 100% 29.96 in 5.0 mi East 9.2 mph - N/A   Overcast
3:35 PM 41.5 °F 35.0 °F 41.2 °F 99% 29.94 in 4.0 mi ESE 11.5 mph - N/A   Overcast
3:55 PM 41.9 °F 36.3 °F 40.6 °F 95% 29.94 in 10.0 mi East 9.2 mph - N/A   Overcast
4:15 PM 42.8 °F 37.5 °F 40.1 °F 90% 29.94 in 10.0 mi ESE 9.2 mph - N/A   Overcast
4:35 PM 43.2 °F 37.4 °F 40.1 °F 89% 29.93 in 10.0 mi ESE 10.4 mph - N/A   Overcast
4:55 PM 43.2 °F 38.4 °F 39.6 °F 87% 29.93 in 10.0 mi East 8.1 mph - N/A   Overcast
5:15 PM 43.2 °F 38.4 °F 39.6 °F 87% 29.92 in 10.0 mi East 8.1 mph - N/A   Overcast
5:35 PM 42.6 °F 36.8 °F 39.2 °F 88% 29.93 in 10.0 mi East 10.4 mph - N/A   Overcast
5:55 PM 41.5 °F 35.4 °F 39.7 °F 93% 29.92 in 10.0 mi East 10.4 mph - N/A   Overcast
6:15 PM 40.6 °F 34.3 °F 40.3 °F 99% 29.94 in 7.0 mi East 10.4 mph - N/A   Overcast
6:35 PM 40.1 °F 33.2 °F 40.1 °F 100% 29.93 in 7.0 mi East 11.5 mph - N/A   Overcast
6:55 PM 39.2 °F 30.8 °F 39.2 °F 100% 29.92 in 2.5 mi East 15.0 mph - N/A   Overcast
7:15 PM 39.2 °F 32.0 °F 39.2 °F 100% 29.93 in 7.0 mi East 11.5 mph - N/A   Overcast
7:35 PM 39.0 °F 31.4 °F 39.0 °F 100% 29.94 in 7.0 mi East 12.7 mph - N/A   Overcast
7:55 PM 39.2 °F 32.0 °F 39.2 °F 100% 29.94 in 7.0 mi East 11.5 mph - N/A   Overcast
8:15 PM 37.8 °F 29.8 °F 37.8 °F 100% 29.96 in 5.0 mi East 12.7 mph - N/A   Overcast
8:35 PM 37.4 °F 28.9 °F 37.4 °F 100% 29.96 in 3.0 mi East 13.8 mph - N/A   Overcast
8:55 PM 36.7 °F 28.9 °F 36.7 °F 100% 29.96 in 2.5 mi East 11.5 mph - N/A   Overcast
9:15 PM 36.1 °F 26.5 °F 36.1 °F 100% 29.97 in 1.8 mi East 16.1 mph - N/A Rain Light Rain
9:35 PM 35.8 °F 27.3 °F 35.8 °F 100% 29.98 in 2.0 mi ENE 12.7 mph - N/A Rain Light Rain
9:55 PM 35.6 °F 27.1 °F 35.6 °F 100% 29.99 in 2.0 mi ENE 12.7 mph 18.4 mph N/A Rain Light Rain
10:15 PM 34.9 °F 26.2 °F 34.9 °F 100% 30.00 in 2.5 mi ENE 12.7 mph 19.6 mph N/A Rain Light Rain
10:35 PM 34.7 °F 26.4 °F 34.7 °F 100% 30.01 in 2.5 mi ENE 11.5 mph - N/A Rain Light Rain
10:55 PM 34.5 °F 25.3 °F 34.5 °F 100% 30.03 in 2.5 mi ENE 13.8 mph - N/A Rain Light Rain
11:15 PM 34.2 °F 25.2 °F 34.2 °F 100% 30.02 in 2.5 mi ENE 12.7 mph 18.4 mph N/A Rain Light Rain
11:35 PM 33.8 °F 24.8 °F 33.8 °F 100% 30.02 in 2.5 mi ENE 12.7 mph 17.3 mph N/A Rain Rain
11:55 PM 33.1 °F 23.4 °F 33.1 °F 100% 30.02 in 3.0 mi ENE 13.8 mph 18.4 mph N/A   Light Drizzle